Wind_Speed
27 20 20 23 27 28 28 27 24 21 21 22 20 21 23 22 21 21 20 19 19 19 19 18 18 17 17 17 16 16 16 16 15 16 16 17 17 18 17 17 17 17 17 18
30 24 22 22 24 25 27 27 25 22 21 23 23 25 26 23 22 22 21 20 19 19 19 19 18 18 18 17 16 16 16 16 16 16 17 18 18 17 17 17 18 18 18 19
30 26 25 25 25 25 26 26 26 26 25 26 27 27 27 25 24 23 22 22 21 20 19 19 19 18 19 18 17 17 17 17 16 17 18 18 18 17 17 18 18 18 19 20
29 27 27 25 24 25 26 27 28 28 29 27 26 28 28 27 25 24 23 22 21 20 19 19 19 18 18 18 18 18 18 18 19 19 19 18 17 18 18 18 19 19 19 20
29 27 26 25 26 26 27 28 29 29 28 29 28 29 29 27 25 24 23 22 21 20 20 19 19 19 19 19 19 19 19 19 19 19 19 18 19 19 19 20 20 20 20 20
30 28 25 26 26 27 27 29 29 30 30 30 29 30 28 26 25 23 22 22 21 20 20 20 20 20 20 20 20 20 20 20 19 19 19 19 20 20 20 20 20 20 20 21
29 29 27 26 26 26 28 30 30 30 30 29 29 29 28 26 24 22 22 21 21 21 20 21 21 21 21 21 21 21 21 20 20 20 20 20 20 20 21 21 21 21 22 22
30 29 28 28 28 29 30 30 30 29 29 29 28 28 26 24 22 22 22 21 21 21 21 21 21 21 22 22 22 22 22 21 21 21 21 21 21 21 22 21 21 22 22 22
32 31 30 30 30 29 28 29 28 28 28 27 27 27 25 24 24 23 23 22 22 22 22 22 22 22 22 22 22 22 22 22 23 23 22 22 22 22 23 23 23 22 22 23
34 33 32 30 29 28 28 27 27 27 27 26 26 26 25 24 24 23 23 23 23 22 22 22 22 22 22 22 22 23 23 24 24 23 23 23 23 24 24 24 23 23 24 24
36 36 34 32 29 28 27 27 27 26 25 26 26 25 25 25 24 24 23 23 23 23 23 23 23 23 23 23 23 24 23 23 22 22 22 23 23 24 24 24 23 24 25 25
34 34 32 31 30 28 28 28 27 26 26 26 25 25 25 24 24 24 24 24 24 23 23 24 24 23 23 23 23 23 23 22 22 22 23 23 23 23 23 23 24 25 25 25
34 33 33 31 30 29 29 28 27 27 27 27 26 25 25 24 24 25 25 25 24 24 24 24 24 24 23 23 23 23 23 23 23 23 23 23 23 23 23 23 24 24 25 25
33 33 33 32 30 30 30 29 28 27 27 26 25 25 25 25 25 25 25 25 25 25 24 24 24 24 23 23 23 23 23 23 23 22 22 23 23 23 23 24 24 24 25 25
32 33 33 33 32 31 31 30 29 29 28 27 26 26 26 25 25 25 25 26 25 25 25 25 23 23 23 23 23 23 23 23 23 23 23 23 23 23 24 24 25 25 26 27
32 32 33 32 32 32 31 30 30 29 28 28 27 27 26 26 25 25 25 25 26 25 24 24 23 23 23 22 22 22 22 21 22 23 23 24 25 24 24 25 25 26 26 27
33 33 33 33 32 32 31 31 30 29 29 28 27 26 26 25 24 24 24 25 25 25 24 24 24 24 23 22 22 22 21 21 22 22 23 23 23 23 24 24 25 26 27 27
31 32 33 33 32 31 31 30 30 29 28 28 27 26 26 25 25 24 24 25 24 24 24 24 24 23 22 22 22 22 22 22 23 23 22 23 23 24 25 25 26 26 27 28
32 32 33 32 32 31 31 30 30 29 29 28 27 27 26 25 25 24 24 23 23 23 22 22 22 22 22 22 22 22 22 22 22 22 22 23 23 24 25 25 26 27 28 29
30 31 31 31 31 31 31 30 29 29 29 28 27 27 26 25 24 24 23 22 22 22 21 21 21 21 21 21 22 22 22 22 22 22 23 23 24 25 25 26 26 28 29 29
28 30 30 30 30 30 29 28 28 27 27 27 27 26 25 25 24 23 23 22 22 21 21 21 20 21 21 21 21 22 22 23 22 22 23 24 25 25 25 26 27 28 29 29
27 28 28 28 28 28 28 27 27 26 26 26 25 25 24 24 23 22 22 22 21 21 20 20 20 21 21 21 21 21 22 22 22 23 24 24 25 25 25 26 28 28 29 29
24 25 26 27 26 26 26 26 26 26 25 25 24 24 23 23 22 22 21 21 21 20 20 21 21 21 20 20 19 19 20 22 22 23 23 24 24 25 26 27 28 28 29 30
23 23 24 24 24 24 24 25 25 25 24 24 24 24 23 22 21 20 19 19 19 19 19 20 20 19 18 18 19 19 20 21 22 23 24 25 25 25 26 27 28 29 30 30
22 22 22 22 22 22 23 23 23 24 23 23 23 23 22 21 20 20 20 20 20 19 19 18 18 17 18 19 19 20 20 21 23 24 24 24 25 25 26 27 28 29 30 30
21 20 20 21 21 21 22 22 22 22 21 21 20 19 19 19 19 19 19 17 17 17 16 16 16 17 18 18 19 20 21 21 22 23 23 23 24 25 26 27 28 28 29 29
19 19 19 20 21 21 21 20 19 19 19 18 17 17 17 17 17 17 16 15 15 15 15 15 15 16 18 18 19 19 20 20 21 21 22 22 23 24 26 26 27 28 28 29
Wind_Direction
201 213 225 224 220 218 217 216 219 223 237 249 253 252 253 256 259 260 260 259 262 265 268 272 276 279 280 283 284 289 292 292 289 291 294 294 293 293 294 295 294 295 297 299
201 203 215 221 220 217 216 215 215 215 227 239 243 249 253 258 259 259 260 261 263 265 268 270 273 277 281 285 283 288 291 293 291 292 293 294 293 293 292 293 295 296 296 298
202 204 212 217 216 214 214 214 215 218 225 235 243 247 253 258 259 258 259 262 263 265 268 270 272 275 279 283 285 288 291 292 293 292 294 295 290 288 290 293 294 296 296 298
202 204 212 219 219 215 214 215 216 220 227 235 241 248 254 257 259 259 260 260 260 263 266 269 271 272 276 280 283 286 289 291 291 292 294 293 291 289 291 293 294 295 295 296
199 205 213 214 214 213 213 216 220 221 227 236 243 250 253 255 256 257 258 256 257 262 266 268 270 271 274 277 280 283 286 288 289 290 293 291 292 292 292 292 293 293 293 293
200 200 209 217 218 216 219 221 222 226 231 236 243 248 253 253 253 252 252 253 256 262 266 267 269 270 274 277 280 282 285 286 285 286 290 291 292 294 295 295 293 292 293 293
201 204 208 214 218 220 221 224 225 227 230 235 242 247 250 249 247 248 249 252 256 261 265 266 269 272 275 277 280 282 283 283 284 285 288 292 294 295 294 294 295 294 293 293
203 205 213 215 216 219 222 225 229 231 234 238 242 246 248 248 247 247 249 252 255 260 264 267 269 273 275 278 280 282 282 282 284 286 287 288 289 291 293 294 295 296 297 297
207 212 216 218 222 225 226 229 232 234 236 238 240 244 246 247 248 247 250 254 256 260 264 266 270 273 275 277 280 282 283 283 285 286 286 286 287 290 292 293 293 292 294 295
211 214 219 222 222 225 228 230 231 234 235 236 239 243 247 247 248 249 251 253 255 259 263 266 270 273 275 277 280 282 284 285 285 284 284 285 287 289 291 292 291 291 292 293
215 218 223 225 224 226 229 231 231 234 234 236 240 244 246 246 247 248 250 252 255 258 262 265 270 273 276 279 281 281 284 286 285 285 285 287 288 289 291 293 293 293 294 294
216 218 222 224 227 228 230 232 232 234 236 238 241 244 245 246 247 248 250 252 255 259 263 266 269 272 276 279 282 284 284 286 286 286 286 286 287 288 290 291 292 293 294 296
219 221 224 226 226 227 230 232 233 234 236 238 241 244 246 247 248 250 251 253 255 258 263 267 269 272 275 278 280 282 285 286 287 287 286 285 286 287 289 291 293 294 295 297
222 224 225 228 228 229 232 233 233 234 236 238 241 245 247 248 249 251 252 254 256 259 263 267 269 271 273 276 278 281 283 283 284 286 288 289 288 289 290 292 294 296 298 299
224 224 226 228 229 231 232 233 234 236 238 240 243 245 247 249 250 251 252 254 257 259 263 266 268 270 274 277 279 280 281 281 282 284 288 290 290 290 291 293 295 297 298 299
225 225 226 227 229 231 232 234 235 237 239 241 244 246 247 248 249 250 253 255 257 260 263 265 267 271 275 278 280 281 280 281 283 286 288 289 290 291 292 295 296 297 297 298
226 226 227 227 229 232 234 236 237 238 240 242 243 244 246 247 249 251 254 256 257 259 260 261 264 270 273 276 278 280 281 282 284 287 289 289 290 291 294 296 296 297 299 301
227 227 228 228 229 231 234 236 237 238 240 241 241 243 244 246 249 252 253 255 257 258 260 261 264 267 271 274 277 280 281 283 284 285 286 288 291 293 296 298 299 300 301 303
229 228 227 228 230 232 233 234 236 237 239 240 241 242 244 246 248 249 251 253 256 257 259 261 264 265 268 271 275 278 280 283 285 285 288 291 295 295 296 299 301 303 304 303
227 226 227 228 230 232 232 233 235 237 238 239 240 241 243 245 246 248 249 251 253 255 257 260 262 263 267 271 275 276 279 281 284 287 290 293 296 297 298 300 303 305 305 305
225 225 226 227 228 229 230 232 233 235 236 237 238 239 241 243 245 248 248 248 251 254 257 259 259 262 266 270 273 276 279 282 285 288 292 295 296 297 299 301 303 306 307 307
224 224 225 225 225 227 229 230 231 232 233 234 236 238 239 240 243 246 246 247 249 251 255 257 257 260 264 269 274 278 282 284 286 290 293 295 296 298 299 302 304 306 307 308
218 220 221 223 225 226 226 226 227 230 231 233 234 235 238 240 240 242 244 246 248 252 256 258 258 260 265 269 274 278 282 285 288 291 294 296 297 299 301 303 306 307 308 308
216 217 218 220 223 224 224 225 226 228 229 232 234 236 238 238 239 243 246 247 249 255 258 259 260 265 269 272 278 283 286 289 291 294 295 296 298 300 302 305 306 308 308 308
214 216 217 218 220 221 221 222 222 225 228 232 235 237 237 238 241 243 245 247 250 254 256 258 264 271 276 279 282 286 290 292 294 297 298 300 302 304 305 306 307 307 308 308
212 214 215 214 214 216 218 220 221 223 226 229 231 234 236 238 241 242 242 245 250 253 256 263 270 276 280 282 285 287 290 293 296 297 299 301 303 305 306 307 308 309 310 310
208 209 209 210 210 211 212 214 216 218 222 226 228 230 233 236 239 241 241 244 249 255 261 267 272 278 283 285 287 291 294 296 298 300 301 303 304 306 308 310 311 312 312 312
Height
5834 5840 5843 5847 5851 5857 5862 5867 5872 5875 5876 5876 5876 5876 5877 5880 5881 5883 5883 5884 5885 5886 5886 5886 5886 5886 5886 5885 5885 5884 5884 5883 5883 5882 5882 5881 5880 5879 5879 5878 5878 5877 5877 5876
5829 5835 5839 5843 5847 5852 5857 5862 5866 5870 5872 5871 5871 5871 5872 5875 5877 5878 5879 5880 5881 5882 5882 5883 5883 5883 5883 5882 5881 5881 5881 5880 5880 5879 5879 5878 5876 5875 5875 5875 5874 5874 5873 5872
5825 5830 5835 5839 5843 5847 5852 5857 5861 5864 5867 5866 5866 5866 5867 5870 5872 5874 5875 5876 5877 5877 5878 5879 5879 5879 5879 5879 5878 5878 5878 5877 5877 5876 5876 5874 5873 5872 5872 5871 5871 5870 5869 5868
5820 5826 5830 5836 5839 5842 5847 5851 5854 5858 5860 5860 5859 5862 5864 5866 5867 5869 5870 5872 5872 5873 5874 5875 5875 5876 5876 5876 5876 5875 5875 5874 5874 5873 5872 5871 5870 5869 5868 5867 5867 5866 5865 5864
5815 5820 5825 5829 5832 5836 5841 5845 5848 5851 5853 5854 5856 5857 5859 5861 5862 5864 5865 5867 5868 5869 5870 5871 5871 5872 5872 5872 5872 5872 5871 5871 5870 5869 5868 5867 5867 5866 5865 5863 5863 5862 5860 5859
5809 5815 5820 5824 5827 5831 5836 5838 5841 5844 5847 5849 5851 5853 5854 5856 5857 5859 5860 5862 5863 5865 5866 5866 5867 5868 5868 5868 5868 5868 5867 5867 5866 5865 5864 5863 5862 5861 5860 5859 5858 5857 5856 5855
5804 5809 5813 5816 5821 5826 5831 5832 5835 5838 5840 5843 5845 5847 5849 5850 5852 5854 5856 5857 5859 5860 5861 5862 5863 5863 5863 5863 5864 5863 5863 5862 5862 5861 5860 5859 5858 5857 5856 5855 5854 5853 5852 5850
5799 5804 5808 5809 5814 5818 5821 5825 5829 5833 5836 5838 5840 5841 5843 5845 5847 5850 5851 5853 5854 5856 5857 5857 5858 5858 5858 5858 5858 5858 5858 5858 5857 5856 5855 5854 5853 5852 5851 5850 5849 5848 5847 5846
5795 5799 5801 5804 5807 5811 5816 5820 5824 5827 5830 5833 5835 5836 5839 5841 5843 5845 5847 5848 5850 5851 5852 5853 5853 5853 5853 5853 5853 5853 5853 5852 5851 5850 5850 5849 5848 5847 5846 5845 5844 5843 5841 5840
5788 5792 5795 5798 5801 5806 5810 5815 5818 5821 5824 5827 5830 5832 5834 5836 5838 5840 5842 5843 5845 5846 5847 5848 5848 5848 5848 5848 5848 5848 5847 5847 5846 5845 5844 5843 5842 5841 5840 5839 5838 5837 5836 5834
5782 5786 5789 5793 5796 5801 5806 5809 5813 5815 5818 5822 5824 5827 5829 5831 5833 5835 5837 5838 5840 5841 5842 5842 5843 5843 5843 5843 5843 5843 5842 5841 5840 5839 5838 5837 5836 5835 5834 5833 5832 5831 5829 5828
5775 5780 5784 5788 5792 5797 5801 5804 5807 5811 5814 5816 5819 5821 5823 5826 5828 5830 5831 5833 5834 5835 5836 5837 5838 5838 5838 5838 5837 5837 5836 5835 5834 5833 5833 5832 5831 5830 5828 5827 5826 5825 5823 5822
5770 5775 5779 5783 5787 5791 5795 5799 5802 5805 5808 5811 5813 5816 5818 5820 5822 5824 5825 5827 5829 5830 5831 5831 5832 5832 5832 5832 5832 5832 5831 5830 5829 5828 5827 5826 5825 5824 5823 5822 5820 5819 5817 5815
5765 5770 5774 5778 5782 5786 5789 5793 5797 5800 5803 5805 5808 5810 5812 5815 5816 5818 5820 5821 5823 5824 5825 5826 5826 5827 5827 5827 5826 5826 5825 5824 5823 5822 5821 5820 5819 5818 5817 5816 5814 5813 5811 5809
5759 5764 5768 5773 5776 5780 5783 5787 5791 5794 5797 5800 5802 5804 5807 5808 5810 5812 5814 5816 5817 5818 5819 5820 5821 5821 5821 5821 5821 5820 5819 5819 5818 5817 5816 5815 5814 5812 5811 5810 5808 5807 5805 5802
5753 5757 5762 5767 5770 5774 5777 5781 5785 5788 5791 5794 5796 5798 5800 5802 5804 5806 5808 5810 5811 5813 5813 5814 5815 5815 5815 5815 5815 5815 5814 5813 5812 5812 5811 5809 5808 5806 5805 5804 5802 5800 5798 5796
5746 5751 5756 5760 5764 5768 5771 5775 5779 5782 5785 5788 5790 5792 5795 5797 5799 5801 5802 5804 5805 5806 5807 5808 5809 5810 5810 5810 5810 5809 5808 5808 5807 5806 5805 5803 5802 5800 5799 5797 5796 5793 5791 5788
5739 5744 5749 5753 5758 5762 5765 5769 5772 5776 5778 5781 5784 5787 5789 5791 5793 5795 5797 5798 5799 5800 5802 5802 5803 5804 5804 5804 5804 5803 5803 5802 5801 5800 5799 5798 5796 5794 5793 5791 5789 5786 5784 5781
5733 5737 5742 5747 5751 5755 5759 5762 5766 5769 5772 5775 5778 5781 5783 5785 5787 5789 5790 5792 5793 5795 5796 5797 5797 5798 5798 5798 5798 5798 5797 5796 5795 5794 5793 5792 5790 5788 5786 5784 5782 5780 5777 5774
5727 5731 5736 5741 5745 5748 5752 5756 5759 5763 5766 5769 5772 5775 5777 5779 5781 5783 5785 5786 5788 5789 5790 5791 5792 5792 5793 5793 5792 5792 5791 5790 5790 5788 5787 5786 5784 5782 5780 5778 5775 5772 5769 5766
5722 5726 5730 5734 5738 5742 5745 5750 5754 5757 5760 5763 5766 5769 5771 5773 5775 5777 5779 5781 5782 5784 5785 5785 5786 5786 5787 5787 5787 5786 5785 5784 5783 5782 5781 5780 5778 5776 5773 5771 5768 5765 5762 5758
5717 5721 5725 5729 5733 5737 5741 5745 5748 5752 5755 5758 5761 5763 5766 5768 5770 5772 5774 5775 5777 5778 5779 5780 5780 5781 5781 5781 5781 5780 5779 5779 5778 5777 5775 5773 5771 5769 5766 5764 5761 5758 5754 5751
5712 5716 5721 5725 5729 5732 5736 5740 5743 5747 5750 5753 5756 5759 5761 5763 5765 5767 5769 5770 5772 5773 5774 5775 5775 5775 5775 5776 5775 5775 5774 5773 5772 5770 5768 5766 5764 5762 5759 5756 5754 5751 5747 5744
5709 5713 5717 5721 5725 5728 5732 5735 5739 5742 5745 5749 5751 5754 5756 5758 5760 5762 5764 5765 5767 5768 5769 5769 5770 5770 5770 5770 5770 5769 5768 5767 5765 5764 5762 5760 5758 5755 5752 5749 5747 5743 5740 5736
5707 5710 5714 5717 5721 5725 5728 5731 5735 5738 5741 5744 5747 5749 5752 5754 5756 5758 5759 5761 5762 5763 5764 5764 5764 5765 5765 5765 5764 5763 5762 5761 5759 5757 5755 5753 5751 5748 5745 5743 5740 5736 5733 5729
5704 5707 5711 5715 5718 5722 5725 5728 5731 5735 5738 5740 5743 5745 5748 5750 5752 5753 5755 5756 5757 5758 5759 5759 5759 5760 5760 5759 5758 5757 5756 5754 5753 5751 5749 5747 5744 5742 5739 5736 5733 5729 5726 5722
5701 5705 5709 5712 5715 5719 5722 5725 5729 5732 5735 5737 5740 5742 5744 5746 5747 5749 5751 5752 5753 5754 5755 5755 5755 5755 5754 5753 5753 5752 5750 5749 5747 5745 5743 5741 5738 5736 5733 5729 5726 5722 5719 5715